Year,Month,Day,Hour,Minute,Value (Times are PST for temperature in C)
2012,11,24,00,00,7.20
2012,11,24,00,01,7.20
2012,11,24,00,02,7.20
2012,11,24,00,03,7.10
2012,11,24,00,04,7.10
2012,11,24,00,05,7.00
2012,11,24,00,06,7.00
2012,11,24,00,07,6.90
2012,11,24,00,08,6.90
2012,11,24,00,09,6.80
2012,11,24,00,10,6.80
2012,11,24,00,11,6.70
2012,11,24,00,12,6.70
2012,11,24,00,13,6.70
2012,11,24,00,14,6.60
2012,11,24,00,15,6.60
2012,11,24,00,16,6.60
2012,11,24,00,17,6.50
2012,11,24,00,18,6.50
2012,11,24,00,19,6.40
2012,11,24,00,20,6.40
2012,11,24,00,21,6.40
2012,11,24,00,22,6.40
2012,11,24,00,23,6.30
2012,11,24,00,24,6.30
2012,11,24,00,25,6.20
2012,11,24,00,26,6.10
2012,11,24,00,27,6.10
2012,11,24,00,28,6.00
2012,11,24,00,29,6.00
2012,11,24,00,30,6.00
2012,11,24,00,31,5.90
2012,11,24,00,32,5.90
2012,11,24,00,33,5.90
2012,11,24,00,34,5.80
2012,11,24,00,35,5.80
2012,11,24,00,36,5.80
2012,11,24,00,37,5.80
2012,11,24,00,38,5.80
2012,11,24,00,39,5.70
2012,11,24,00,40,5.70
2012,11,24,00,41,5.70
2012,11,24,00,42,5.60
2012,11,24,00,43,5.60
2012,11,24,00,44,5.60
2012,11,24,00,45,5.60
2012,11,24,00,46,5.50
2012,11,24,00,47,5.40
2012,11,24,00,48,5.40
2012,11,24,00,49,5.40
2012,11,24,00,50,5.40
2012,11,24,00,51,5.40
2012,11,24,00,52,5.30
2012,11,24,00,53,5.30
2012,11,24,00,54,5.30
2012,11,24,00,55,5.30
2012,11,24,00,56,5.20
2012,11,24,00,57,5.20
2012,11,24,00,58,5.20
2012,11,24,00,59,5.10
2012,11,24,01,00,5.10
2012,11,24,01,01,5.10
2012,11,24,01,02,5.00
2012,11,24,01,03,5.00
2012,11,24,01,04,5.00
2012,11,24,01,05,5.00
2012,11,24,01,06,5.00
2012,11,24,01,07,4.90
2012,11,24,01,08,4.90
2012,11,24,01,09,4.90
2012,11,24,01,10,4.90
2012,11,24,01,11,4.90
2012,11,24,01,12,4.90
2012,11,24,01,13,4.90
2012,11,24,01,14,4.90
2012,11,24,01,15,4.90
2012,11,24,01,16,4.90
2012,11,24,01,17,4.90
2012,11,24,01,18,5.00
2012,11,24,01,19,5.00
2012,11,24,01,20,5.00
2012,11,24,01,21,5.00
2012,11,24,01,22,5.10
2012,11,24,01,23,5.10
2012,11,24,01,24,5.10
2012,11,24,01,25,5.10
2012,11,24,01,26,5.10
2012,11,24,01,27,5.10
2012,11,24,01,28,5.10
2012,11,24,01,29,5.10
2012,11,24,01,30,5.00
2012,11,24,01,31,5.00
2012,11,24,01,32,4.90
2012,11,24,01,33,4.90
2012,11,24,01,34,4.90
2012,11,24,01,35,4.90
2012,11,24,01,36,4.90
2012,11,24,01,37,4.80
2012,11,24,01,38,4.80
2012,11,24,01,39,4.80
2012,11,24,01,40,4.80
2012,11,24,01,41,4.80
2012,11,24,01,42,4.70
2012,11,24,01,43,4.70
2012,11,24,01,44,4.70
2012,11,24,01,45,4.60
2012,11,24,01,46,4.60
2012,11,24,01,47,4.50
2012,11,24,01,48,4.50
2012,11,24,01,49,4.50
2012,11,24,01,50,4.40
2012,11,24,01,51,4.40
2012,11,24,01,52,4.40
2012,11,24,01,53,4.40
2012,11,24,01,54,4.30
2012,11,24,01,55,4.30
2012,11,24,01,56,4.30
2012,11,24,01,57,4.30
2012,11,24,01,58,4.30
2012,11,24,01,59,4.30
2012,11,24,02,00,4.30
2012,11,24,02,01,4.40
2012,11,24,02,02,4.40
2012,11,24,02,03,4.50
2012,11,24,02,04,4.50
2012,11,24,02,05,4.60
2012,11,24,02,06,4.50
2012,11,24,02,07,4.50
2012,11,24,02,08,4.50
2012,11,24,02,09,4.50
2012,11,24,02,10,4.60
2012,11,24,02,11,4.80
2012,11,24,02,12,4.80
2012,11,24,02,13,4.90
2012,11,24,02,14,4.90
2012,11,24,02,15,4.90
2012,11,24,02,16,5.00
2012,11,24,02,17,5.00
2012,11,24,02,18,5.10
2012,11,24,02,19,5.10
2012,11,24,02,20,5.10
2012,11,24,02,21,5.20
2012,11,24,02,22,5.20
2012,11,24,02,23,5.30
2012,11,24,02,24,5.40
2012,11,24,02,25,5.50
2012,11,24,02,26,5.60
2012,11,24,02,27,5.70
2012,11,24,02,28,5.80
2012,11,24,02,29,5.80
2012,11,24,02,30,5.90
2012,11,24,02,31,6.00
2012,11,24,02,32,6.00
2012,11,24,02,33,6.10
2012,11,24,02,34,6.10
2012,11,24,02,35,6.20
2012,11,24,02,36,6.20
2012,11,24,02,37,6.20
2012,11,24,02,38,6.20
2012,11,24,02,39,6.20
2012,11,24,02,40,6.20
2012,11,24,02,41,6.20
2012,11,24,02,42,6.20
2012,11,24,02,43,6.20
2012,11,24,02,44,6.20
2012,11,24,02,45,6.20
2012,11,24,02,46,6.20
2012,11,24,02,47,6.30
2012,11,24,02,48,6.30
2012,11,24,02,49,6.40
2012,11,24,02,50,6.40
2012,11,24,02,51,6.50
2012,11,24,02,52,6.60
2012,11,24,02,53,6.60
2012,11,24,02,54,6.70
2012,11,24,02,55,6.80
2012,11,24,02,56,6.90
2012,11,24,02,57,7.00
2012,11,24,02,58,7.00
2012,11,24,02,59,7.10
2012,11,24,03,00,7.20
2012,11,24,03,01,7.20
2012,11,24,03,02,7.20
2012,11,24,03,03,7.20
2012,11,24,03,04,7.20
2012,11,24,03,05,7.30
2012,11,24,03,06,7.30
2012,11,24,03,07,7.30
2012,11,24,03,08,7.30
2012,11,24,03,09,7.30
2012,11,24,03,10,7.30
2012,11,24,03,11,7.30
2012,11,24,03,12,7.30
2012,11,24,03,13,7.30
2012,11,24,03,14,7.40
2012,11,24,03,15,7.30
2012,11,24,03,16,7.30
2012,11,24,03,17,7.30
2012,11,24,03,18,7.30
2012,11,24,03,19,7.30
2012,11,24,03,20,7.30
2012,11,24,03,21,7.30
2012,11,24,03,22,7.30
2012,11,24,03,23,7.30
2012,11,24,03,24,7.30
2012,11,24,03,25,7.30
2012,11,24,03,26,7.20
2012,11,24,03,27,7.20
2012,11,24,03,28,7.20
2012,11,24,03,29,7.20
2012,11,24,03,30,7.20
2012,11,24,03,31,7.20
2012,11,24,03,32,7.20
2012,11,24,03,33,7.20
2012,11,24,03,34,7.20
2012,11,24,03,35,7.20
2012,11,24,03,36,7.20
2012,11,24,03,37,7.20
2012,11,24,03,38,7.10
2012,11,24,03,39,7.10
2012,11,24,03,40,7.10
2012,11,24,03,41,7.10
2012,11,24,03,42,7.00
2012,11,24,03,43,7.00
2012,11,24,03,44,7.00
2012,11,24,03,45,7.00
2012,11,24,03,46,6.90
2012,11,24,03,47,6.90
2012,11,24,03,48,6.90
2012,11,24,03,49,6.90
2012,11,24,03,50,6.80
2012,11,24,03,51,6.80
2012,11,24,03,52,6.80
2012,11,24,03,53,6.80
2012,11,24,03,54,6.70
2012,11,24,03,55,6.70
2012,11,24,03,56,6.70
2012,11,24,03,57,6.70
2012,11,24,03,58,6.70
2012,11,24,03,59,6.70
2012,11,24,04,00,6.60
2012,11,24,04,01,6.60
2012,11,24,04,02,6.60
2012,11,24,04,03,6.60
2012,11,24,04,04,6.50
2012,11,24,04,05,6.50
2012,11,24,04,06,6.40
2012,11,24,04,07,6.40
2012,11,24,04,08,6.30
2012,11,24,04,09,6.30
2012,11,24,04,10,6.30
2012,11,24,04,11,6.30
2012,11,24,04,12,6.20
2012,11,24,04,13,6.20
2012,11,24,04,14,6.20
2012,11,24,04,15,6.10
2012,11,24,04,16,6.10
2012,11,24,04,17,6.00
2012,11,24,04,18,5.90
2012,11,24,04,19,5.90
2012,11,24,04,20,5.80
2012,11,24,04,21,5.80
2012,11,24,04,22,5.70
2012,11,24,04,23,5.70
2012,11,24,04,24,5.60
2012,11,24,04,25,5.60
2012,11,24,04,26,5.60
2012,11,24,04,27,5.50
2012,11,24,04,28,5.40
2012,11,24,04,29,5.40
2012,11,24,04,30,5.30
2012,11,24,04,31,5.30
2012,11,24,04,32,5.30
2012,11,24,04,33,5.20
2012,11,24,04,34,5.20
2012,11,24,04,35,5.20
2012,11,24,04,36,5.20
2012,11,24,04,37,5.20
2012,11,24,04,38,5.20
2012,11,24,04,39,5.20
2012,11,24,04,40,5.20
2012,11,24,04,41,5.20
2012,11,24,04,42,5.20
2012,11,24,04,43,5.20
2012,11,24,04,44,5.10
2012,11,24,04,45,5.10
2012,11,24,04,46,5.10
2012,11,24,04,47,5.10
2012,11,24,04,48,5.10
2012,11,24,04,49,5.20
2012,11,24,04,50,5.20
2012,11,24,04,51,5.20
2012,11,24,04,52,5.20
2012,11,24,04,53,5.20
2012,11,24,04,54,5.20
2012,11,24,04,55,5.20
2012,11,24,04,56,5.30
2012,11,24,04,57,5.30
2012,11,24,04,58,5.30
2012,11,24,04,59,5.30
2012,11,24,05,00,5.30
2012,11,24,05,01,5.30
2012,11,24,05,02,5.30
2012,11,24,05,03,5.30
2012,11,24,05,04,5.30
2012,11,24,05,05,5.30
2012,11,24,05,06,5.40
2012,11,24,05,07,5.40
2012,11,24,05,08,5.40
2012,11,24,05,09,5.50
2012,11,24,05,10,5.50
2012,11,24,05,11,5.50
2012,11,24,05,12,5.60
2012,11,24,05,13,5.60
2012,11,24,05,14,5.60
2012,11,24,05,15,5.60
2012,11,24,05,16,5.60
2012,11,24,05,17,5.50
2012,11,24,05,18,5.40
2012,11,24,05,19,5.40
2012,11,24,05,20,5.30
2012,11,24,05,21,5.30
2012,11,24,05,22,5.20
2012,11,24,05,23,5.10
2012,11,24,05,24,5.10
2012,11,24,05,25,5.00
2012,11,24,05,26,5.00
2012,11,24,05,27,5.00
2012,11,24,05,28,5.00
2012,11,24,05,29,5.00
2012,11,24,05,30,5.00
2012,11,24,05,31,5.10
2012,11,24,05,32,5.10
2012,11,24,05,33,5.10
2012,11,24,05,34,5.10
2012,11,24,05,35,5.20
2012,11,24,05,36,5.20
2012,11,24,05,37,5.10
2012,11,24,05,38,5.00
2012,11,24,05,39,4.90
2012,11,24,05,40,4.80
2012,11,24,05,41,4.70
2012,11,24,05,42,4.60
2012,11,24,05,43,4.50
2012,11,24,05,44,4.50
2012,11,24,05,45,4.40
2012,11,24,05,46,4.30
2012,11,24,05,47,4.30
2012,11,24,05,48,4.30
2012,11,24,05,49,4.20
2012,11,24,05,50,4.20
2012,11,24,05,51,4.20
2012,11,24,05,52,4.20
2012,11,24,05,53,4.10
2012,11,24,05,54,4.10
2012,11,24,05,55,4.10
2012,11,24,05,56,4.10
2012,11,24,05,57,4.10
2012,11,24,05,58,4.10
2012,11,24,05,59,4.00
2012,11,24,06,00,4.00
2012,11,24,06,01,4.00
2012,11,24,06,02,4.00
2012,11,24,06,03,4.00
2012,11,24,06,04,4.00
2012,11,24,06,05,4.00
2012,11,24,06,06,4.00
2012,11,24,06,07,4.00
2012,11,24,06,08,4.00
2012,11,24,06,09,3.90
2012,11,24,06,10,3.90
2012,11,24,06,11,3.90
2012,11,24,06,12,3.80
2012,11,24,06,13,3.80
2012,11,24,06,14,3.80
2012,11,24,06,15,3.90
2012,11,24,06,16,3.90
2012,11,24,06,17,3.90
2012,11,24,06,18,3.90
2012,11,24,06,19,3.90
2012,11,24,06,20,3.90
2012,11,24,06,21,3.80
2012,11,24,06,22,3.80
2012,11,24,06,23,3.80
2012,11,24,06,24,3.70
2012,11,24,06,25,3.70
2012,11,24,06,26,3.60
2012,11,24,06,27,3.60
2012,11,24,06,28,3.60
2012,11,24,06,29,3.50
2012,11,24,06,30,3.50
2012,11,24,06,31,3.40
2012,11,24,06,32,3.40
2012,11,24,06,33,3.30
2012,11,24,06,34,3.30
2012,11,24,06,35,3.30
2012,11,24,06,36,3.30
2012,11,24,06,37,3.30
2012,11,24,06,38,3.20
2012,11,24,06,39,3.20
2012,11,24,06,40,3.20
2012,11,24,06,41,3.20
2012,11,24,06,42,3.20
2012,11,24,06,43,3.10
2012,11,24,06,44,3.10
2012,11,24,06,45,3.10
2012,11,24,06,46,3.10
2012,11,24,06,47,3.10
2012,11,24,06,48,3.10
2012,11,24,06,49,3.10
2012,11,24,06,50,3.20
2012,11,24,06,51,3.20
2012,11,24,06,52,3.30
2012,11,24,06,53,3.40
2012,11,24,06,54,3.40
2012,11,24,06,55,3.50
2012,11,24,06,56,3.60
2012,11,24,06,57,3.70
2012,11,24,06,58,3.90
2012,11,24,06,59,4.10
2012,11,24,07,00,4.40
2012,11,24,07,01,4.60
2012,11,24,07,02,4.70
2012,11,24,07,03,4.80
2012,11,24,07,04,4.90
2012,11,24,07,05,5.00
2012,11,24,07,06,5.10
2012,11,24,07,07,5.10
2012,11,24,07,08,5.20
2012,11,24,07,09,5.40
2012,11,24,07,10,5.50
2012,11,24,07,11,5.60
2012,11,24,07,12,5.70
2012,11,24,07,13,5.80
2012,11,24,07,14,5.90
2012,11,24,07,15,6.00
2012,11,24,07,16,6.10
2012,11,24,07,17,6.10
2012,11,24,07,18,6.20
2012,11,24,07,19,6.20
2012,11,24,07,20,6.20
2012,11,24,07,21,6.20
2012,11,24,07,22,6.20
2012,11,24,07,23,6.20
2012,11,24,07,24,6.20
2012,11,24,07,25,6.20
2012,11,24,07,26,6.20
2012,11,24,07,27,6.20
2012,11,24,07,28,6.20
2012,11,24,07,29,6.20
2012,11,24,07,30,6.20
2012,11,24,07,31,6.20
2012,11,24,07,32,6.20
2012,11,24,07,33,6.20
2012,11,24,07,34,6.20
2012,11,24,07,35,6.20
2012,11,24,07,36,6.30
2012,11,24,07,37,6.30
2012,11,24,07,38,6.30
2012,11,24,07,39,6.10
2012,11,24,07,40,6.00
2012,11,24,07,41,5.80
2012,11,24,07,42,5.60
2012,11,24,07,43,5.30
2012,11,24,07,44,5.10
2012,11,24,07,45,4.90
2012,11,24,07,46,4.80
2012,11,24,07,47,4.70
2012,11,24,07,48,4.60
2012,11,24,07,49,4.50
2012,11,24,07,50,4.40
2012,11,24,07,51,4.40
2012,11,24,07,52,4.30
2012,11,24,07,53,4.30
2012,11,24,07,54,4.40
2012,11,24,07,55,4.40
2012,11,24,07,56,4.40
2012,11,24,07,57,4.40
2012,11,24,07,58,4.40
2012,11,24,07,59,4.40
2012,11,24,08,00,4.40
2012,11,24,08,01,4.40
2012,11,24,08,02,4.50
2012,11,24,08,03,4.50
2012,11,24,08,04,4.50
2012,11,24,08,05,4.60
2012,11,24,08,06,4.60
2012,11,24,08,07,4.60
2012,11,24,08,08,4.60
2012,11,24,08,09,4.50
2012,11,24,08,10,4.50
2012,11,24,08,11,4.40
2012,11,24,08,12,4.40
2012,11,24,08,13,4.40
2012,11,24,08,14,4.30
2012,11,24,08,15,4.30
2012,11,24,08,16,4.30
2012,11,24,08,17,4.40
2012,11,24,08,18,4.40
2012,11,24,08,19,4.50
2012,11,24,08,20,4.50
2012,11,24,08,21,4.50
2012,11,24,08,22,4.50
2012,11,24,08,23,4.50
2012,11,24,08,24,4.50
2012,11,24,08,25,4.50
2012,11,24,08,26,4.50
2012,11,24,08,27,4.40
2012,11,24,08,28,4.40
2012,11,24,08,29,4.40
2012,11,24,08,30,4.40
2012,11,24,08,31,4.40
2012,11,24,08,32,4.40
2012,11,24,08,33,4.40
2012,11,24,08,34,4.40
2012,11,24,08,35,4.30
2012,11,24,08,36,4.30
2012,11,24,08,37,4.30
2012,11,24,08,38,4.30
2012,11,24,08,39,4.30
2012,11,24,08,40,4.30
2012,11,24,08,41,4.30
2012,11,24,08,42,4.30
2012,11,24,08,43,4.30
2012,11,24,08,44,4.30
2012,11,24,08,45,4.30
2012,11,24,08,46,4.30
2012,11,24,08,47,4.30
2012,11,24,08,48,4.30
2012,11,24,08,49,4.30
2012,11,24,08,50,4.40
2012,11,24,08,51,4.40
2012,11,24,08,52,4.50
2012,11,24,08,53,4.50
2012,11,24,08,54,4.60
2012,11,24,08,55,4.60
2012,11,24,08,56,4.70
2012,11,24,08,57,4.70
2012,11,24,08,58,4.70
2012,11,24,08,59,4.80
2012,11,24,09,00,4.80
2012,11,24,09,01,4.90
2012,11,24,09,02,5.00
2012,11,24,09,03,5.00
2012,11,24,09,04,5.10
2012,11,24,09,05,5.10
2012,11,24,09,06,5.10
2012,11,24,09,07,5.20
2012,11,24,09,08,5.20
2012,11,24,09,09,5.30
2012,11,24,09,10,5.30
2012,11,24,09,11,5.40
2012,11,24,09,12,5.50
2012,11,24,09,13,5.50
2012,11,24,09,14,5.60
2012,11,24,09,15,5.60
2012,11,24,09,16,5.70
2012,11,24,09,17,5.70
2012,11,24,09,18,5.70
2012,11,24,09,19,5.80
2012,11,24,09,20,5.90
2012,11,24,09,21,5.90
2012,11,24,09,22,6.00
2012,11,24,09,23,6.10
2012,11,24,09,24,6.20
2012,11,24,09,25,6.20
2012,11,24,09,26,6.30
2012,11,24,09,27,6.30
2012,11,24,09,28,6.40
2012,11,24,09,29,6.50
2012,11,24,09,30,6.50
2012,11,24,09,31,6.60
2012,11,24,09,32,6.60
2012,11,24,09,33,6.70
2012,11,24,09,34,6.70
2012,11,24,09,35,6.80
2012,11,24,09,36,6.90
2012,11,24,09,37,6.90
2012,11,24,09,38,7.00
2012,11,24,09,39,7.20
2012,11,24,09,40,7.30
2012,11,24,09,41,7.40
2012,11,24,09,42,7.60
2012,11,24,09,43,7.70
2012,11,24,09,44,7.80
2012,11,24,09,45,7.90
2012,11,24,09,46,7.90
2012,11,24,09,47,8.00
2012,11,24,09,48,8.10
2012,11,24,09,49,8.20
2012,11,24,09,50,8.20
2012,11,24,09,51,8.30
2012,11,24,09,52,8.30
2012,11,24,09,53,8.30
2012,11,24,09,54,8.30
2012,11,24,09,55,8.30
2012,11,24,09,56,8.40
2012,11,24,09,57,8.40
2012,11,24,09,58,8.50
2012,11,24,09,59,8.50
2012,11,24,10,00,8.50
2012,11,24,10,01,8.50
2012,11,24,10,02,8.60
2012,11,24,10,03,8.70
2012,11,24,10,04,8.70
2012,11,24,10,05,8.70
2012,11,24,10,06,8.80
2012,11,24,10,07,8.80
2012,11,24,10,08,8.90
2012,11,24,10,09,8.90
2012,11,24,10,10,8.90
2012,11,24,10,11,9.00
2012,11,24,10,12,9.00
2012,11,24,10,13,9.10
2012,11,24,10,14,9.10
2012,11,24,10,15,9.20
2012,11,24,10,16,9.30
2012,11,24,10,17,9.30
2012,11,24,10,18,9.30
2012,11,24,10,19,9.30
2012,11,24,10,20,9.30
2012,11,24,10,21,9.30
2012,11,24,10,22,9.40
2012,11,24,10,23,9.40
2012,11,24,10,24,9.40
2012,11,24,10,25,9.50
2012,11,24,10,26,9.50
2012,11,24,10,27,9.40
2012,11,24,10,28,9.50
2012,11,24,10,29,9.60
2012,11,24,10,30,9.60
2012,11,24,10,31,9.60
2012,11,24,10,32,9.60
2012,11,24,10,33,9.50
2012,11,24,10,34,9.50
2012,11,24,10,35,9.50
2012,11,24,10,36,9.40
2012,11,24,10,37,9.40
2012,11,24,10,38,9.40
2012,11,24,10,39,9.40
2012,11,24,10,40,9.40
2012,11,24,10,41,9.40
2012,11,24,10,42,9.40
2012,11,24,10,43,9.50
2012,11,24,10,44,9.60
2012,11,24,10,45,9.60
2012,11,24,10,46,9.70
2012,11,24,10,47,9.70
2012,11,24,10,48,9.80
2012,11,24,10,49,9.90
2012,11,24,10,50,9.90
2012,11,24,10,51,10.00
2012,11,24,10,52,10.10
2012,11,24,10,53,10.10
2012,11,24,10,54,10.10
2012,11,24,10,55,10.10
2012,11,24,10,56,10.10
2012,11,24,10,57,10.10
2012,11,24,10,58,10.10
2012,11,24,10,59,10.10
2012,11,24,11,00,10.10
2012,11,24,11,01,10.10
2012,11,24,11,02,10.10
2012,11,24,11,03,10.10
2012,11,24,11,04,10.10
2012,11,24,11,05,10.10
2012,11,24,11,06,10.10
2012,11,24,11,07,10.10
2012,11,24,11,08,10.00
2012,11,24,11,09,10.00
2012,11,24,11,10,10.00
2012,11,24,11,11,10.10
2012,11,24,11,12,10.10
2012,11,24,11,13,10.20
2012,11,24,11,14,10.20
2012,11,24,11,15,10.20
2012,11,24,11,16,10.30
2012,11,24,11,17,10.30
2012,11,24,11,18,10.40
2012,11,24,11,19,10.40
2012,11,24,11,20,10.40
2012,11,24,11,21,10.40
2012,11,24,11,22,10.50
2012,11,24,11,23,10.50
2012,11,24,11,24,10.50
2012,11,24,11,25,10.40
2012,11,24,11,26,10.40
2012,11,24,11,27,10.30
2012,11,24,11,28,10.30
2012,11,24,11,29,10.20
2012,11,24,11,30,10.20
2012,11,24,11,31,10.20
2012,11,24,11,32,10.20
2012,11,24,11,33,10.20
2012,11,24,11,34,10.20
2012,11,24,11,35,10.30
2012,11,24,11,36,10.40
2012,11,24,11,37,10.50
2012,11,24,11,38,10.60
2012,11,24,11,39,10.60
2012,11,24,11,40,10.70
2012,11,24,11,41,10.70
2012,11,24,11,42,10.80
2012,11,24,11,43,10.80
2012,11,24,11,44,10.80
2012,11,24,11,45,10.80
2012,11,24,11,46,10.90
2012,11,24,11,47,10.90
2012,11,24,11,48,11.00
2012,11,24,11,49,11.00
2012,11,24,11,50,11.10
2012,11,24,11,51,11.10
2012,11,24,11,52,11.10
2012,11,24,11,53,11.10
2012,11,24,11,54,11.00
2012,11,24,11,55,11.00
2012,11,24,11,56,10.90
2012,11,24,11,57,10.90
2012,11,24,11,58,10.90
2012,11,24,11,59,10.80
2012,11,24,12,00,10.70
2012,11,24,12,01,10.70
2012,11,24,12,02,10.60
2012,11,24,12,03,10.50
2012,11,24,12,04,10.50
2012,11,24,12,05,10.50
2012,11,24,12,06,10.50
2012,11,24,12,07,10.60
2012,11,24,12,08,10.60
2012,11,24,12,09,10.60
2012,11,24,12,10,10.70
2012,11,24,12,11,10.70
2012,11,24,12,12,10.80
2012,11,24,12,13,10.80
2012,11,24,12,14,10.80
2012,11,24,12,15,10.80
2012,11,24,12,16,10.80
2012,11,24,12,17,10.70
2012,11,24,12,18,10.60
2012,11,24,12,19,10.60
2012,11,24,12,20,10.50
2012,11,24,12,21,10.50
2012,11,24,12,22,10.50
2012,11,24,12,23,10.60
2012,11,24,12,24,10.60
2012,11,24,12,25,10.70
2012,11,24,12,26,10.70
2012,11,24,12,27,10.70
2012,11,24,12,28,10.70
2012,11,24,12,29,10.70
2012,11,24,12,30,10.70
2012,11,24,12,31,10.70
2012,11,24,12,32,10.70
2012,11,24,12,33,10.80
2012,11,24,12,34,10.80
2012,11,24,12,35,10.80
2012,11,24,12,36,10.80
2012,11,24,12,37,10.90
2012,11,24,12,38,11.00
2012,11,24,12,39,11.10
2012,11,24,12,40,11.20
2012,11,24,12,41,11.20
2012,11,24,12,42,11.20
2012,11,24,12,43,11.30
2012,11,24,12,44,11.40
2012,11,24,12,45,11.50
2012,11,24,12,46,11.50
2012,11,24,12,47,11.60
2012,11,24,12,48,11.60
2012,11,24,12,49,11.40
2012,11,24,12,50,11.30
2012,11,24,12,51,11.20
2012,11,24,12,52,11.00
2012,11,24,12,53,10.80
2012,11,24,12,54,10.70
2012,11,24,12,55,10.60
2012,11,24,12,56,10.50
2012,11,24,12,57,10.40
2012,11,24,12,58,10.30
2012,11,24,12,59,10.20
2012,11,24,13,00,10.10
2012,11,24,13,01,10.00
2012,11,24,13,02,9.90
2012,11,24,13,03,9.80
2012,11,24,13,04,9.80
2012,11,24,13,05,9.80
2012,11,24,13,06,9.70
2012,11,24,13,07,9.70
2012,11,24,13,08,9.70
2012,11,24,13,09,9.60
2012,11,24,13,10,9.60
2012,11,24,13,11,9.60
2012,11,24,13,12,9.60
2012,11,24,13,13,9.50
2012,11,24,13,14,9.50
2012,11,24,13,15,9.40
2012,11,24,13,16,9.40
2012,11,24,13,17,9.40
2012,11,24,13,18,9.30
2012,11,24,13,19,9.30
2012,11,24,13,20,9.30
2012,11,24,13,21,9.20
2012,11,24,13,22,9.20
2012,11,24,13,23,9.20
2012,11,24,13,24,9.20
2012,11,24,13,25,9.20
2012,11,24,13,26,9.20
2012,11,24,13,27,9.20
2012,11,24,13,28,9.30
2012,11,24,13,29,9.30
2012,11,24,13,30,9.30
2012,11,24,13,31,9.30
2012,11,24,13,32,9.30
2012,11,24,13,33,9.30
2012,11,24,13,34,9.30
2012,11,24,13,35,9.30
2012,11,24,13,36,9.30
2012,11,24,13,37,9.30
2012,11,24,13,38,9.30
2012,11,24,13,39,9.30
2012,11,24,13,40,9.30
2012,11,24,13,41,9.30
2012,11,24,13,42,9.30
2012,11,24,13,43,9.30
2012,11,24,13,44,9.30
2012,11,24,13,45,9.30
2012,11,24,13,46,9.20
2012,11,24,13,47,9.20
2012,11,24,13,48,9.20
2012,11,24,13,49,9.20
2012,11,24,13,50,9.20
2012,11,24,13,51,9.20
2012,11,24,13,52,9.20
2012,11,24,13,53,9.10
2012,11,24,13,54,9.10
2012,11,24,13,55,9.10
2012,11,24,13,56,9.10
2012,11,24,13,57,9.00
2012,11,24,13,58,9.00
2012,11,24,13,59,9.00
2012,11,24,14,00,9.00
2012,11,24,14,01,9.00
2012,11,24,14,02,8.90
2012,11,24,14,03,8.90
2012,11,24,14,04,8.90
2012,11,24,14,05,8.90
2012,11,24,14,06,8.90
2012,11,24,14,07,8.80
2012,11,24,14,08,8.80
2012,11,24,14,09,8.80
2012,11,24,14,10,8.80
2012,11,24,14,11,8.80
2012,11,24,14,12,8.80
2012,11,24,14,13,8.80
2012,11,24,14,14,8.80
2012,11,24,14,15,8.90
2012,11,24,14,16,8.90
2012,11,24,14,17,8.90
2012,11,24,14,18,8.90
2012,11,24,14,19,8.90
2012,11,24,14,20,8.90
2012,11,24,14,21,8.90
2012,11,24,14,22,8.80
2012,11,24,14,23,8.80
2012,11,24,14,24,8.80
2012,11,24,14,25,8.80
2012,11,24,14,26,8.80
2012,11,24,14,27,8.80
2012,11,24,14,28,8.80
2012,11,24,14,29,8.80
2012,11,24,14,30,8.80
2012,11,24,14,31,8.80
2012,11,24,14,32,8.80
2012,11,24,14,33,8.80
2012,11,24,14,34,8.80
2012,11,24,14,35,8.80
2012,11,24,14,36,8.80
2012,11,24,14,37,8.80
2012,11,24,14,38,8.80
2012,11,24,14,39,8.80
2012,11,24,14,40,8.80
2012,11,24,14,41,8.80
2012,11,24,14,42,8.80
2012,11,24,14,43,8.90
2012,11,24,14,44,8.90
2012,11,24,14,45,8.90
2012,11,24,14,46,8.90
2012,11,24,14,47,8.90
2012,11,24,14,48,8.90
2012,11,24,14,49,8.90
2012,11,24,14,50,8.90
2012,11,24,14,51,8.90
2012,11,24,14,52,8.90
2012,11,24,14,53,8.90
2012,11,24,14,54,8.90
2012,11,24,14,55,8.90
2012,11,24,14,56,8.90
2012,11,24,14,57,8.90
2012,11,24,14,58,8.90
2012,11,24,14,59,8.90
2012,11,24,15,00,8.90
2012,11,24,15,01,8.90
2012,11,24,15,02,8.90
2012,11,24,15,03,8.90
2012,11,24,15,04,8.90
2012,11,24,15,05,8.90
2012,11,24,15,06,8.90
2012,11,24,15,07,8.90
2012,11,24,15,08,8.90
2012,11,24,15,09,8.90
2012,11,24,15,10,8.90
2012,11,24,15,11,8.90
2012,11,24,15,12,8.90
2012,11,24,15,13,8.90
2012,11,24,15,14,8.90
2012,11,24,15,15,8.90
2012,11,24,15,16,8.90
2012,11,24,15,17,8.90
2012,11,24,15,18,8.90
2012,11,24,15,19,8.90
2012,11,24,15,20,8.90
2012,11,24,15,21,8.90
2012,11,24,15,22,8.90
2012,11,24,15,23,8.90
2012,11,24,15,24,8.90
2012,11,24,15,25,8.90
2012,11,24,15,26,8.90
2012,11,24,15,27,8.90
2012,11,24,15,28,8.90
2012,11,24,15,29,8.90
2012,11,24,15,30,8.90
2012,11,24,15,31,8.90
2012,11,24,15,32,8.90
2012,11,24,15,33,8.90
2012,11,24,15,34,8.90
2012,11,24,15,35,8.90
2012,11,24,15,36,8.90
2012,11,24,15,37,8.90
2012,11,24,15,38,8.90
2012,11,24,15,39,8.90
2012,11,24,15,40,8.90
2012,11,24,15,41,8.90
2012,11,24,15,42,8.90
2012,11,24,15,43,8.90
2012,11,24,15,44,8.90
2012,11,24,15,45,8.90
2012,11,24,15,46,8.90
2012,11,24,15,47,8.90
2012,11,24,15,48,8.90
2012,11,24,15,49,8.90
2012,11,24,15,50,8.90
2012,11,24,15,51,8.90
2012,11,24,15,52,8.90
2012,11,24,15,53,8.90
2012,11,24,15,54,8.90
2012,11,24,15,55,8.90
2012,11,24,15,56,8.80
2012,11,24,15,57,8.80
2012,11,24,15,58,8.80
2012,11,24,15,59,8.80
2012,11,24,16,00,8.80
2012,11,24,16,01,8.80
2012,11,24,16,02,8.80
2012,11,24,16,03,8.80
2012,11,24,16,04,8.80
2012,11,24,16,05,8.80
2012,11,24,16,06,8.80
2012,11,24,16,07,8.80
2012,11,24,16,08,8.80
2012,11,24,16,09,8.70
2012,11,24,16,10,8.70
2012,11,24,16,11,8.60
2012,11,24,16,12,8.60
2012,11,24,16,13,8.60
2012,11,24,16,14,8.50
2012,11,24,16,15,8.50
2012,11,24,16,16,8.40
2012,11,24,16,17,8.40
2012,11,24,16,18,8.30
2012,11,24,16,19,8.30
2012,11,24,16,20,8.20
2012,11,24,16,21,8.20
2012,11,24,16,22,8.20
2012,11,24,16,23,8.10
2012,11,24,16,24,8.10
2012,11,24,16,25,8.10
2012,11,24,16,26,8.10
2012,11,24,16,27,8.00
2012,11,24,16,28,8.00
2012,11,24,16,29,8.00
2012,11,24,16,30,7.90
2012,11,24,16,31,7.90
2012,11,24,16,32,7.90
2012,11,24,16,33,7.90
2012,11,24,16,34,7.90
2012,11,24,16,35,7.80
2012,11,24,16,36,7.80
2012,11,24,16,37,7.80
2012,11,24,16,38,7.80
2012,11,24,16,39,7.70
2012,11,24,16,40,7.70
2012,11,24,16,41,7.70
2012,11,24,16,42,7.70
2012,11,24,16,43,7.70
2012,11,24,16,44,7.60
2012,11,24,16,45,7.60
2012,11,24,16,46,7.60
2012,11,24,16,47,7.60
2012,11,24,16,48,7.60
2012,11,24,16,49,7.50
2012,11,24,16,50,7.50
2012,11,24,16,51,7.40
2012,11,24,16,52,7.40
2012,11,24,16,53,7.40
2012,11,24,16,54,7.30
2012,11,24,16,55,7.30
2012,11,24,16,56,7.30
2012,11,24,16,57,7.30
2012,11,24,16,58,7.30
2012,11,24,16,59,7.20
2012,11,24,17,00,7.20
2012,11,24,17,01,7.20
2012,11,24,17,02,7.20
2012,11,24,17,03,7.20
2012,11,24,17,04,7.20
2012,11,24,17,05,7.20
2012,11,24,17,06,7.20
2012,11,24,17,07,7.10
2012,11,24,17,08,7.10
2012,11,24,17,09,7.10
2012,11,24,17,10,7.10
2012,11,24,17,11,7.00
2012,11,24,17,12,7.00
2012,11,24,17,13,7.00
2012,11,24,17,14,6.90
2012,11,24,17,15,6.90
2012,11,24,17,16,6.90
2012,11,24,17,17,6.80
2012,11,24,17,18,6.70
2012,11,24,17,19,6.70
2012,11,24,17,20,6.70
2012,11,24,17,21,6.60
2012,11,24,17,22,6.60
2012,11,24,17,23,6.60
2012,11,24,17,24,6.50
2012,11,24,17,25,6.50
2012,11,24,17,26,6.50
2012,11,24,17,27,6.40
2012,11,24,17,28,6.40
2012,11,24,17,29,6.40
2012,11,24,17,30,6.40
2012,11,24,17,31,6.40
2012,11,24,17,32,6.30
2012,11,24,17,33,6.30
2012,11,24,17,34,6.30
2012,11,24,17,35,6.30
2012,11,24,17,36,6.30
2012,11,24,17,37,6.20
2012,11,24,17,38,6.20
2012,11,24,17,39,6.20
2012,11,24,17,40,6.20
2012,11,24,17,41,6.20
2012,11,24,17,42,6.20
2012,11,24,17,43,6.20
2012,11,24,17,44,6.20
2012,11,24,17,45,6.20
2012,11,24,17,46,6.10
2012,11,24,17,47,6.10
2012,11,24,17,48,6.10
2012,11,24,17,49,6.10
2012,11,24,17,50,6.10
2012,11,24,17,51,6.00
2012,11,24,17,52,6.00
2012,11,24,17,53,5.90
2012,11,24,17,54,5.90
2012,11,24,17,55,5.80
2012,11,24,17,56,5.80
2012,11,24,17,57,5.80
2012,11,24,17,58,5.80
2012,11,24,17,59,5.80
2012,11,24,18,00,5.70